Tracking 29892 objects as of 21-Nov-2024
HD Live streaming from Space Station
objects crossing your sky now

METEOR 2-11 DEB

Track METEOR 2-11 DEB now!
10-day predictions


NORAD ID: 60008
Int'l Code: 1984-072AD
Perigee: 866.9 km
Apogee: 913.2 km
Inclination: 82.5 °
Period: 102.6 minutes
Semi major axis: 7261 km
RCS: Unknown
Launch date: July 5, 1984
Source: Commonwealth of Independent States (former USSR) (CIS)
Launch site: PLESETSK MISSILE AND SPACE COMPLEX (PKMTR)

Note: This is SATELLITE DEBRIS
Your satellite tracking list
Your tracking list is empty




NASA's NSSDC Master Catalog

Two Line Element Set (TLE):
1 60008U 84072AD  24316.09312615  .00016690  00000-0  10650-1 0  9993
2 60008  82.5120  85.2236 0031884 104.6693 255.8016 14.03154341552222
Source of the keplerian elements: AFSPC